Location: Niedergestelen
(46.3129°N, 7.7822°E)
Time: 08:17:50
(UTC+00:00)

ARGOS - Visible Passes

Search period start: 14 April 2021 00:00
Search period end: 24 April 2021 00:00
Orbit: 819 x 835 km, 98.4° (Epoch: 12 April)

Date Brightness Start Highest point End Pass type
(mag) Time Alt. Az. Time Alt. Az. Time Alt. Az.
14 Apr 5.9 19:53:58 10° WSW 19:57:03 15° W 20:00:07 10° NW visible
15 Apr 5.6 19:34:04 10° SW 19:38:10 22° W 19:42:17 10° NW visible
16 Apr 5.1 19:14:38 10° SSW 19:19:21 31° W 19:24:07 10° NNW visible
17 Apr 4.4 18:55:28 10° S 19:00:35 44° W 19:05:44 10° NNW visible
19 Apr 6.0 20:01:52 10° WSW 20:04:14 13° W 20:06:36 10° WNW visible
20 Apr 5.8 19:41:37 10° SW 19:45:20 19° W 19:49:04 10° NW visible
21 Apr 5.3 19:22:01 10° SSW 19:26:29 27° W 19:31:00 10° NW visible
22 Apr 4.7 19:02:44 10° SSW 19:07:42 38° W 19:12:42 10° NNW visible
